Weather Service Report


713 
ASUS45 KCYS 260510
RWRWY 

WYOMING REGIONAL WEATHER ROUNDUP
NATIONAL WEATHER SERVICE CHEYENNE WY
1000 PM MST SUN JAN 25 2015

NOTE:  "FAIR" INDICATES FEW OR NO CLOUDS BELOW 12,000 FEET
WITH NO SIGNIFICANT WEATHER AND/OR OBSTRUCTIONS TO VISIBILITY.

WYZ001-260600-
YELLOWSTONE NATIONAL PARK
  
CITY           SKY/WX    TMP DP  RH WIND       PRES   REMARKS
LK YELLOWSTONE   N/A     28  26  92 W3        30.47S                  
W YELLOWSTONE  NOT AVBL                                               

$$
WYZ002>013-054>058-071-098>099-260600-
NORTHERN WYOMING
  
CITY           SKY/WX    TMP DP  RH WIND       PRES   REMARKS
JACKSON        FAIR      25  25 100 CALM      30.44S                  
CODY           FAIR      55  23  28 W8G20     30.19R                  
GREYBULL       FAIR      26  23  88 E5        30.20R WCI  20          
WORLAND        FAIR      22  19  89 CALM      30.19R                  
SHERIDAN       FAIR      41  29  62 S6        30.07R                  
BUFFALO        FAIR      44  27  51 S7        30.11R                  
GILLETTE       FAIR      41  30  65 W9        30.07S                  
HULETT           N/A    N/A N/A N/A MISG        N/A                   
NEWCASTLE      FAIR      34  30  86 NW3       30.08R                  

$$
WYZ014>020-022>026-101>103-260600-
CENTRAL WYOMING
  
CITY           SKY/WX    TMP DP  RH WIND       PRES   REMARKS
BIG PINEY      FAIR      28  24  85 W8        30.38R WCI  20          
PINEDALE       FAIR      34  27  75 NW8       30.36R WCI  27          
DUBOIS         FAIR      45  21  39 W21       30.31R                  
LANDER         FAIR      40  27  59 CALM      30.22S                  
RIVERTON       FAIR      40  28  62 W13       30.23S WCI  32          
CASPER         FAIR      41  28  60 SW14      30.19R                  
DOUGLAS        FAIR      35  28  75 NW6       30.17R WCI  30          

$$
WYZ021-027>030-104>119-260600-
SOUTHERN WYOMING
  
CITY           SKY/WX    TMP DP  RH WIND       PRES   REMARKS
EVANSTON       FAIR      35  29  78 N5        30.43S WCI  31          
KEMMERER       FAIR      32  28  86 NW14      30.41S WCI  22          
FORT BRIDGER   FAIR      38  31  75 W10       30.43F WCI  32          
ROCK SPRINGS   FAIR      35  27  72 SW13      30.38R WCI  26          
DIXON          FAIR      29  25  85 CALM      30.44R                  
RAWLINS        FAIR      36  26  67 SW21G26   30.32R WCI  25          
SARATOGA       FAIR      32  27  80 S8        30.36R WCI  25          
LARAMIE        FAIR      34  22  61 W3        30.27R                  
CHEYENNE       FAIR      45  24  43 NW12      30.20S                  
TORRINGTON     FAIR      40  30  67 NW9       30.12S WCI  34          
PINE BLUFFS    FAIR      39  28  65 W10       30.18S WCI  32          

$$

Return to Home page


Western Regional Climate Center, wrcc@dri.edu